Retour au catalogue

STARLINK-32453

ActifCommunicationsVLEO
NORAD 61671·PAYLOAD·🇺🇸 United States

Lancé Oct 26, 2024 depuis Cape Canaveral Space Force Station

Loading…

Prochains Passages (prochaines 24 heures)

TLE

FraisSource: CelesTrak SupGP

Époque: Sep 15, 2026, 03:24 UTC

1 61671C 24193L   26258.14215278 -.00000903  00000+0 -29036-4 0  2588
2 61671  53.1570 290.1515 0001305  92.6141 314.4003 15.31709827    18

Suivez STARLINK-32453 en temps réel avec AllMySat

Download on the App Store